Regional Weather Roundup
Issued by NWS Upton, NY

Current Version | Previous Version | Text Only | Print | Product List | Glossary Off
Versions: 1 2 3 4 5 6 7 8 9 10 11 12 13 14 15 16 17 18 19 20 21 22 23 24 25 26 27
000 ASUS41 KOKX 242305 RWROKX REGIONAL WEATHER ROUNDUP NATIONAL WEATHER SERVICE NEW YORK NY 700 PM EDT FRI OCT 24 2014 NOTE: "FAIR" INDICATES FEW OR NO CLOUDS BELOW 12,000 FEET WITH NO SIGNIFICANT WEATHER AND/OR OBSTRUCTIONS TO VISIBILITY. NYZ071-072-176-178-NJZ106-104-250000- NEW YORK CITY METRO AREA CITY SKY/WX TMP DP RH WIND PRES REMARKS CENTRAL PARK PTCLDY 57 45 64 CALM 29.82R LAGUARDIA APRT MOCLDY 58 47 66 E6 29.79R KENNEDY INTL MOCLDY 56 45 66 NE5 29.80R NEWARK/LIBERTY MOCLDY 65 42 43 NW8 29.80R BRNX BOT. GARD N/A 54 46 76 CALM 29.80S TETERBORO CLEAR 57 45 64 CALM 29.79R $$ NYZ177-179-078>081-250000- LONG ISLAND NEW YORK CITY SKY/WX TMP DP RH WIND PRES REMARKS FARMINGDALE MOCLDY 56 45 66 CALM 29.80R ISLIP MOCLDY 55 45 68 NW5 29.77R SHIRLEY CLOUDY 55 46 71 N9 29.79R WESTHAMPTON CLOUDY 54 45 71 N8 29.79R MONTAUK POINT N/A 55 43 63 NW14G23 29.77R $$ NYZ052-065-067-250000- HUDSON VALLEY CITY SKY/WX TMP DP RH WIND PRES REMARKS WHITE PLAINS PTCLDY 52 44 74 NW5 29.78R NEWBURGH MOCLDY 54 48 82 CALM 29.81R MONTGOMERY PTCLDY 54 44 69 MISG 29.79R POUGHKEEPSIE PTCLDY 54 46 74 CALM 29.80R ALBANY CLOUDY 47 44 90 NE8 29.84R $$ NJZ001-105-106-008-010-013-015-019>022-104-250000- NEW JERSEY CITY SKY/WX TMP DP RH WIND PRES REMARKS NEWARK/LIBERTY MOCLDY 65 42 43 NW8 29.80R TETERBORO CLEAR 57 45 64 CALM 29.79R CALDWELL PTCLDY 63 39 41 NW8 29.80R MORRISTOWN CLEAR 63 41 45 N6G16 29.80F SOMERVILLE PTCLDY 64 40 41 NW7 29.79R SUSSEX CLEAR 63 40 42 NW3 29.81R ANDOVER N/A 60 39 45 N6 29.83R TRENTON PTCLDY 63 42 46 NW7 29.82R MILLVILLE MOCLDY 59 45 59 W8 29.85R ATLANTIC CITY MOCLDY 61 47 59 SW7 29.83R WRIGHTSTOWN PTCLDY 61 44 54 W6 29.80R TOMS RIVER PTCLDY 57 46 67 CALM 29.82R BELMAR MOCLDY 57 46 67 E3 29.81R $$ PAZ047>061-062-071-250000- EASTERN PENNSYLVANIA CITY SKY/WX TMP DP RH WIND PRES REMARKS PHILADELPHIA MOCLDY 65 43 44 W12 29.84R ALLENTOWN PTCLDY 61 42 49 NW5 29.84R SCRANTON CLEAR 59 39 47 N13 29.87R $$ CTZ002-004>006-009-010-012-RIZ004-006-007-MAZ004-011-015-250000- SOUTHERN NEW ENGLAND IN CT CITY SKY/WX TMP DP RH WIND PRES REMARKS BRADLEY INTL CLOUDY 53 41 63 NW9G17 29.77R HARTFORD CLOUDY 53 42 66 NW6 29.78R DANBURY MOCLDY 53 43 68 N6 29.80R WTRBRY/OXFORD CLOUDY 52 43 71 N5 29.79R BRIDGEPORT CLOUDY 56 45 66 N7 29.79R MERIDEN CLOUDY 53 43 68 N5 29.78R NEW HAVEN CLOUDY 57 44 62 N6 29.78R CHESTER CLOUDY 52 43 71 NW13 29.77S GROTON CLOUDY 51 42 71 NW10 29.75S WILLIMANTIC CLOUDY 52 41 66 NW9 29.76R IN RI CITY SKY/WX TMP DP RH WIND PRES REMARKS PROVIDENCE CLOUDY 52 42 69 NW9 29.74R BLOCK ISLAND CLOUDY 54 43 66 NW8 29.75R WESTERLY CLOUDY 53 42 66 VRB5 29.76R IN MA CITY SKY/WX TMP DP RH WIND PRES REMARKS BOSTON CLOUDY 51 43 74 NW8 29.72R WORCESTER CLOUDY 46 39 76 NW12G22 29.74R WESTFIELD CLOUDY 51 41 68 NW13G21 29.77R PROVINCETOWN CLOUDY 54 0 11 NW15 29.71R NANTUCKET CLOUDY 53 48 83 NW10 29.71R $$ ANZ330-335-338-340-345-350-353-355-250000- COASTAL MARINE OBSERVATIONS STATION/POSITION TIME SKY/WX TEMP WIND PRES VSBY WAVE AIR SEA DIR/SP/G HT/PER (UTC) (F) (DEG/KT/KT) (MB) (MI) (FT/S) NY HARB ENTRANCE NOT AVBL 4S FIRE IS 2300 63 N/A 2/ 9 20S FIRE ISLAND 2300 58 63 360/ 14/ 16 1008.3 3/ 9 23SW MTP 2300 N/A 4/ 5 HUDSON CANYON 2300 60 65 330/ 17/ 21 1008.5 5/ 6 EXECUTION ROCKS 2300 58 62 30/ 6/ 8 N/A WESTERN LI SOUND 2300 58 10/ 8/ 10 N/A 0 CENTRAL LI SOUND 2200 55 63 330/ 14/ 19 N/A 2/ 3 EASTERN LI SOUND 2200 55 63 320/ 14/ 19 N/A ROBBINS REEF 2300 60 100/ 6/ 6 1007.6 $$ >>>>>>>>>>>>>>>>>>>>>>>>>>>> KEY <<<<<<<<<<<<<<<<<<<<<<<<<<< > < > SKY/WX - SKY CONDITION/PRESENT WEATHER < > TMP - TEMPERATURE IN FAHRENHEIT < > DP - DEWPOINT IN FAHRENHEIT < > RH - RELATIVE HUMIDITY IN PERCENT < > WIND - DIRECTION AND SPEED IN MPH < > PRES - MEAN SEA LEVEL PRESSURE IN INCHES OF HG < > WCI - WIND CHILL INDEX < > VSB - VISIBILITY IN MILES < > HX - HEAT INDEX < > TC - TEMPERATURE IN CELSIUS < > VRB - VARIABLE WIND DIRECTION < > < >>>>>>>>>>>>>>>>>>>>>>>>>>>> KEY <<<<<<<<<<<<<<<<<<<<<<<<<<<

USA.gov is the U.S. government's official web portal to all federal, state and local government web resources and services.